WEN3627 KPDX-CYYC

Flight info

Callsign WEN3627
Flight time N/A
Altitude 25000
Route LAVAA7 SUNED DCT DBLUS DCT ANTAK IGVEP7
Aircraft DH8D/M-SDE2E3FGRY/H

Departure

Time 2026-05-07 20:38
Airport Portland International Airport (KPDX)

Arrival

Time N/A
Airport Calgary International Airport (CYYC)
Time Latitude Longitude Altitude Speed Heading
2026-05-07 20:17 45.58944 -122.58946 27 ft 0 kts 209°
2026-05-07 20:27 45.58944 -122.58947 27 ft 0 kts 209°
2026-05-07 20:28 45.58946 -122.58946 27 ft 1 kts 209°
2026-05-07 20:28 45.58958 -122.58937 27 ft 2 kts 197°
2026-05-07 20:28 45.58973 -122.58933 27 ft 2 kts 185°
2026-05-07 20:28 45.58988 -122.58933 27 ft 2 kts 174°
2026-05-07 20:29 45.59002 -122.58936 27 ft 2 kts 162°
2026-05-07 20:29 45.59016 -122.58945 27 ft 2 kts 150°
2026-05-07 20:29 45.59029 -122.58957 27 ft 2 kts 139°
2026-05-07 20:29 45.59039 -122.58972 27 ft 2 kts 127°
2026-05-07 20:30 45.59046 -122.58987 27 ft 0 kts 119°
2026-05-07 20:33 45.59041 -122.58974 27 ft 2 kts 118°
2026-05-07 20:33 45.59029 -122.58928 27 ft 9 kts 98°
2026-05-07 20:34 45.59030 -122.58824 27 ft 11 kts 88°
2026-05-07 20:34 45.59025 -122.58720 27 ft 12 kts 109°
2026-05-07 20:34 45.58980 -122.58601 27 ft 11 kts 120°
2026-05-07 20:34 45.58950 -122.58524 27 ft 7 kts 117°
2026-05-07 20:35 45.58917 -122.58438 27 ft 15 kts 119°
2026-05-07 20:35 45.58847 -122.58263 27 ft 22 kts 119°
2026-05-07 20:35 45.58776 -122.58078 27 ft 18 kts 118°
2026-05-07 20:35 45.58709 -122.57907 27 ft 20 kts 118°
2026-05-07 20:36 45.58644 -122.57739 27 ft 18 kts 119°
2026-05-07 20:36 45.58586 -122.57590 27 ft 16 kts 118°
2026-05-07 20:36 45.58515 -122.57408 27 ft 25 kts 118°
2026-05-07 20:36 45.58418 -122.57157 27 ft 26 kts 118°
2026-05-07 20:37 45.58349 -122.56976 27 ft 15 kts 109°
2026-05-07 20:37 45.58401 -122.56872 27 ft 14 kts 357°
2026-05-07 20:37 45.58470 -122.56967 27 ft 20 kts 297°
2026-05-07 20:37 45.58618 -122.57350 27 ft 70 kts 296°
2026-05-07 20:38 45.58984 -122.58293 29 ft 141 kts 298°
2026-05-07 20:38 45.59481 -122.59574 459 ft 151 kts 300°
2026-05-07 20:38 45.59965 -122.60880 1111 ft 151 kts 297°
2026-05-07 20:38 45.60414 -122.62214 1781 ft 152 kts 289°
2026-05-07 20:39 45.60449 -122.63782 2232 ft 163 kts 274°
2026-05-07 20:39 45.60754 -122.65212 3081 ft 148 kts 296°
2026-05-07 20:39 45.61226 -122.66527 3635 ft 156 kts 300°
2026-05-07 20:39 45.61750 -122.67904 4203 ft 161 kts 303°
2026-05-07 20:40 45.62336 -122.69217 4946 ft 157 kts 305°
2026-05-07 20:40 45.62939 -122.70520 5495 ft 164 kts 305°
2026-05-07 20:40 45.63559 -122.71889 6145 ft 164 kts 304°
2026-05-07 20:40 45.64139 -122.73250 6845 ft 162 kts 304°
2026-05-07 20:41 45.64733 -122.74664 7376 ft 171 kts 305°
2026-05-07 20:41 45.65374 -122.76098 7955 ft 178 kts 304°
2026-05-07 20:41 45.66044 -122.77655 8422 ft 190 kts 303°
2026-05-07 20:41 45.66796 -122.79129 9078 ft 189 kts 329°
2026-05-07 20:42 45.68086 -122.79498 9617 ft 188 kts
2026-05-07 20:42 45.69395 -122.79182 10081 ft 200 kts 20°
2026-05-07 20:42 45.70427 -122.77844 10465 ft 212 kts 65°
2026-05-07 20:42 45.70660 -122.75726 10938 ft 222 kts 86°
2026-05-07 20:43 45.70715 -122.73470 11382 ft 234 kts 85°
2026-05-07 20:43 45.70789 -122.71086 11821 ft 245 kts 85°
2026-05-07 20:43 45.70876 -122.68619 12252 ft 256 kts 85°
2026-05-07 20:43 45.70981 -122.66006 12687 ft 266 kts 84°
2026-05-07 20:44 45.71095 -122.63331 13111 ft 276 kts 84°
2026-05-07 20:44 45.71218 -122.60551 13535 ft 285 kts 84°
2026-05-07 20:44 45.71350 -122.57688 13956 ft 292 kts 84°
2026-05-07 20:44 45.71487 -122.54763 14373 ft 299 kts 84°
2026-05-07 20:45 45.71629 -122.51749 14792 ft 305 kts 84°
2026-05-07 20:45 45.71773 -122.48712 15205 ft 311 kts 84°
2026-05-07 20:45 45.71921 -122.45625 15616 ft 316 kts 83°
2026-05-07 20:45 45.72072 -122.42454 16031 ft 320 kts 83°
2026-05-07 20:46 45.72224 -122.39260 16442 ft 324 kts 83°
2026-05-07 20:46 45.72377 -122.36047 16849 ft 327 kts 83°
2026-05-07 20:46 45.72532 -122.32746 17262 ft 331 kts 84°
2026-05-07 20:46 45.72686 -122.29488 17666 ft 333 kts 84°
2026-05-07 20:47 45.72841 -122.26166 18074 ft 336 kts 84°
2026-05-07 20:47 45.72997 -122.22819 18481 ft 338 kts 84°
2026-05-07 20:47 45.73154 -122.19443 18890 ft 340 kts 84°
2026-05-07 20:47 45.73308 -122.16099 19292 ft 342 kts 84°
2026-05-07 20:48 45.73466 -122.12653 19705 ft 344 kts 84°
2026-05-07 20:48 45.73620 -122.09290 20102 ft 343 kts 84°
2026-05-07 20:48 45.73774 -122.05885 20505 ft 342 kts 84°
2026-05-07 20:48 45.73928 -122.02480 20970 ft 340 kts 83°
2026-05-07 20:49 45.73991 -122.01067 21178 ft 339 kts 84°
2026-05-07 20:49 45.74125 -121.98058 21626 ft 336 kts 83°
2026-05-07 20:49 45.74273 -121.94747 22124 ft 334 kts 83°
2026-05-07 20:49 45.74419 -121.91437 22624 ft 332 kts 83°
2026-05-07 20:50 45.74563 -121.88126 23128 ft 331 kts 83°
2026-05-07 20:50 45.74867 -121.84941 23603 ft 325 kts 70°
2026-05-07 20:50 45.75680 -121.81963 24119 ft 320 kts 63°
2026-05-07 20:50 45.76569 -121.79031 24624 ft 319 kts 62°
2026-05-07 20:51 45.77451 -121.76130 25000 ft 324 kts 62°
2026-05-07 20:51 45.78374 -121.73093 25082 ft 337 kts 63°
2026-05-07 20:51 45.79314 -121.69980 25082 ft 350 kts 63°
2026-05-07 20:51 45.80288 -121.66733 25050 ft 354 kts 63°
2026-05-07 20:52 45.81257 -121.63492 25047 ft 351 kts 63°
2026-05-07 20:52 45.82207 -121.60307 25048 ft 349 kts 63°
2026-05-07 20:52 45.83154 -121.57127 25048 ft 347 kts 63°
2026-05-07 20:52 45.84092 -121.53974 25047 ft 345 kts 63°
2026-05-07 20:53 45.85035 -121.50794 25047 ft 344 kts 63°
2026-05-07 20:53 45.85965 -121.47656 25047 ft 342 kts 63°
2026-05-07 20:53 45.86888 -121.44539 25048 ft 341 kts 63°
2026-05-07 20:53 45.87828 -121.41362 25063 ft 350 kts 63°
2026-05-07 20:54 45.88777 -121.38142 25058 ft 354 kts 63°
2026-05-07 20:54 45.89749 -121.34847 25051 ft 357 kts 64°
2026-05-07 20:54 45.90727 -121.31531 25050 ft 360 kts 64°
2026-05-07 20:54 45.91690 -121.28258 25051 ft 362 kts 64°
2026-05-07 20:55 45.92673 -121.24912 25051 ft 363 kts 64°
2026-05-07 20:55 45.93652 -121.21571 25052 ft 364 kts 64°
2026-05-07 20:55 45.94629 -121.18232 25048 ft 362 kts 64°
2026-05-07 20:55 45.95602 -121.14902 25048 ft 362 kts 64°
2026-05-07 20:56 45.96577 -121.11559 25049 ft 361 kts 64°
2026-05-07 20:56 45.97549 -121.08227 25049 ft 360 kts 64°
2026-05-07 20:56 45.98519 -121.04894 25050 ft 360 kts 64°
2026-05-07 20:56 45.99485 -121.01572 25049 ft 360 kts 64°
2026-05-07 20:57 46.00444 -120.98269 25049 ft 360 kts 64°
2026-05-07 20:57 46.01407 -120.94949 25049 ft 360 kts 64°
2026-05-07 20:57 46.02364 -120.91640 25049 ft 360 kts 64°
2026-05-07 20:57 46.03329 -120.88306 25049 ft 360 kts 64°
2026-05-07 20:58 46.04285 -120.84995 25047 ft 360 kts 64°
2026-05-07 20:58 46.05245 -120.81664 25046 ft 360 kts 64°
2026-05-07 20:58 46.06212 -120.78303 25044 ft 361 kts 64°
2026-05-07 20:58 46.07161 -120.75003 25043 ft 361 kts 64°
2026-05-07 20:59 46.08125 -120.71646 25041 ft 361 kts 64°
2026-05-07 20:59 46.09076 -120.68327 25041 ft 361 kts 64°
2026-05-07 20:59 46.10041 -120.64957 25040 ft 361 kts 64°
2026-05-07 20:59 46.10989 -120.61639 25041 ft 361 kts 64°
2026-05-07 21:00 46.11945 -120.58294 25041 ft 361 kts 64°
2026-05-07 21:00 46.12904 -120.54935 25041 ft 362 kts 64°
2026-05-07 21:00 46.13855 -120.51596 25041 ft 362 kts 64°
2026-05-07 21:00 46.14802 -120.48265 25041 ft 362 kts 64°
2026-05-07 21:01 46.15761 -120.44889 25041 ft 362 kts 64°
2026-05-07 21:01 46.16713 -120.41531 25041 ft 362 kts 64°
2026-05-07 21:01 46.17667 -120.38163 25041 ft 362 kts 64°
2026-05-07 21:01 46.18617 -120.34804 25041 ft 362 kts 65°
2026-05-07 21:02 46.19573 -120.31419 25041 ft 362 kts 65°
2026-05-07 21:02 46.20510 -120.28097 25041 ft 362 kts 65°
2026-05-07 21:02 46.21462 -120.24719 25040 ft 362 kts 65°
2026-05-07 21:02 46.22408 -120.21355 25041 ft 362 kts 65°
2026-05-07 21:03 46.23349 -120.18005 25041 ft 362 kts 65°
2026-05-07 21:03 46.24297 -120.14626 25041 ft 362 kts 65°
2026-05-07 21:03 46.25241 -120.11256 25041 ft 362 kts 65°
2026-05-07 21:03 46.26182 -120.07890 25041 ft 362 kts 65°
2026-05-07 21:04 46.27130 -120.04497 25041 ft 362 kts 65°
2026-05-07 21:04 46.28067 -120.01135 25041 ft 362 kts 65°
2026-05-07 21:04 46.29029 -119.97754 25037 ft 361 kts 62°
2026-05-07 21:04 46.30431 -119.94879 25041 ft 350 kts 40°
2026-05-07 21:05 46.32276 -119.92586 25029 ft 350 kts 36°
2026-05-07 21:05 46.34138 -119.90350 25039 ft 350 kts 36°
2026-05-07 21:05 46.36004 -119.88116 25049 ft 350 kts 36°
2026-05-07 21:05 46.37886 -119.85858 25050 ft 350 kts 36°
2026-05-07 21:06 46.39749 -119.83618 25048 ft 351 kts 36°
2026-05-07 21:06 46.41624 -119.81358 25047 ft 351 kts 36°
2026-05-07 21:06 46.43502 -119.79091 25047 ft 351 kts 36°
2026-05-07 21:06 46.45378 -119.76823 25049 ft 351 kts 36°
2026-05-07 21:07 46.47241 -119.74567 25050 ft 351 kts 36°
2026-05-07 21:07 46.49115 -119.72295 25050 ft 351 kts 36°
2026-05-07 21:07 46.50975 -119.70038 25050 ft 352 kts 36°
2026-05-07 21:07 46.52858 -119.67750 25050 ft 352 kts 36°
2026-05-07 21:08 46.54722 -119.65482 25050 ft 352 kts 36°
2026-05-07 21:08 46.56594 -119.63203 25050 ft 352 kts 36°
2026-05-07 21:08 46.58487 -119.60895 25050 ft 352 kts 36°
2026-05-07 21:08 46.60356 -119.58616 25050 ft 352 kts 36°
2026-05-07 21:09 46.62212 -119.56349 25050 ft 352 kts 36°
2026-05-07 21:09 46.64098 -119.54044 25050 ft 352 kts 36°
2026-05-07 21:09 46.65965 -119.51759 25050 ft 352 kts 36°
2026-05-07 21:09 46.67819 -119.49488 25050 ft 352 kts 36°
2026-05-07 21:10 46.69709 -119.47172 25049 ft 352 kts 36°
2026-05-07 21:10 46.71563 -119.44898 25049 ft 352 kts 36°
2026-05-07 21:10 46.73433 -119.42600 25049 ft 352 kts 36°
2026-05-07 21:10 46.75295 -119.40311 25032 ft 352 kts 36°
2026-05-07 21:11 46.77169 -119.38004 25028 ft 352 kts 36°
2026-05-07 21:11 46.79054 -119.35683 25027 ft 352 kts 36°
2026-05-07 21:11 46.82774 -119.31097 25026 ft 352 kts 37°
2026-05-07 21:12 46.84646 -119.28784 25025 ft 352 kts 37°
2026-05-07 21:12 46.86509 -119.26482 25024 ft 352 kts 37°
2026-05-07 21:12 46.88374 -119.24174 25023 ft 352 kts 37°
2026-05-07 21:12 46.90239 -119.21865 25023 ft 352 kts 37°
2026-05-07 21:13 46.92095 -119.19563 25022 ft 352 kts 37°
2026-05-07 21:13 46.93963 -119.17245 25023 ft 352 kts 37°
2026-05-07 21:13 46.95838 -119.14915 25022 ft 352 kts 36°
2026-05-07 21:13 46.97686 -119.12619 25022 ft 351 kts 36°
2026-05-07 21:14 46.99535 -119.10317 25022 ft 351 kts 36°
2026-05-07 21:14 47.00159 -119.09541 25022 ft 351 kts 36°